Weather reports worldwide

Advertisment
Venezia/Tessera, Italy (16105): temperature & dewpoint: 25.05.2020 00:00:00 - 31.05.2020 00:00:00 (CEST)Venezia/Tessera, Italy (16105): wind speed: 25.05.2020 00:00:00 - 31.05.2020 00:00:00 (CEST)Venezia/Tessera, Italy (16105): wind direction: 25.05.2020 00:00:00 - 31.05.2020 00:00:00 (CEST)Venezia/Tessera, Italy (16105): reduced air pressure: 25.05.2020 00:00:00 - 31.05.2020 00:00:00 (CEST)Venezia/Tessera, Italy (16105): visibility: 25.05.2020 00:00:00 - 31.05.2020 00:00:00 (CEST)Venezia/Tessera, Italy (16105): precipitation: 25.05.2020 00:00:00 - 31.05.2020 00:00:00 (CEST)
Date & Time tt [°C] td [°C] ff [km/h] ff [kn] dd ppp [hPa] vv [km] rr [mm]
31.05.2020 00:00:00 17,0 11,0 11 6 NW - 10 -
30.05.2020 23:00:00 19,0 9,0 11 6 E - 10 -
30.05.2020 22:00:00 19,0 10,0 9 5 ESE - 10 -
30.05.2020 21:00:00 19,0 8,0 13 7 SE - 10 -
30.05.2020 20:00:00 19,4 10,0 8 4 SSE 1015,5 10 -
30.05.2020 19:00:00 21,0 7,0 8 4 - - 10 -
30.05.2020 18:00:00 21,0 7,0 4 2 - - 10 -
30.05.2020 17:00:00 21,4 9,0 5 3 SSE 1015,6 10 0,0
30.05.2020 16:00:00 20,0 9,0 5 3 SSE - 10 -
30.05.2020 15:00:00 20,0 8,0 9 5 SE - 10 -
30.05.2020 14:00:00 20,4 7,8 9 5 SSE 1016,6 10 -
30.05.2020 13:00:00 20,0 8,0 13 7 ESE - 10 -
30.05.2020 12:00:00 20,0 8,0 5 3 ESE - 10 -
30.05.2020 11:00:00 19,3 8,9 8 4 NE 1017,7 10 0,0
30.05.2020 10:00:00 19,0 9,0 11 6 E - 10 -
30.05.2020 09:00:00 19,0 10,0 15 8 ENE - 10 -
30.05.2020 08:00:00 17,5 9,8 15 8 NE 1018,1 10 -
30.05.2020 07:00:00 16,0 9,0 15 8 NNE - 10 -
30.05.2020 06:00:00 15,0 8,0 15 8 NE - 10 -
30.05.2020 05:00:00 14,9 8,1 13 7 NNE 1018,1 10 0,0
30.05.2020 04:00:00 16,0 9,0 16 9 NE - 10 -
30.05.2020 03:00:00 16,0 9,0 13 7 NNE - 10 -
30.05.2020 02:00:00 16,9 9,5 9 5 NNW 1019,0 10 -
30.05.2020 01:00:00 17,0 11,0 8 4 NNW - 10 -
30.05.2020 00:00:00 17,0 10,0 4 2 NW - 10 -
29.05.2020 23:00:00 17,2 10,1 5 3 W 1019,2 10 0,0
29.05.2020 22:00:00 17,0 11,0 9 5 W - 10 -
29.05.2020 21:00:00 18,0 11,0 13 7 W - 10 -
29.05.2020 20:00:00 19,8 8,6 11 6 SW 1018,5 10 -
29.05.2020 19:00:00 21,0 7,0 11 6 SW - 10 -
29.05.2020 18:00:00 21,0 8,0 8 4 S - 10 -
29.05.2020 17:00:00 20,8 7,2 15 8 SSW 1019,2 10 0,0
29.05.2020 16:00:00 20,0 7,0 13 7 SSW - 10 -
29.05.2020 15:00:00 21,0 8,0 18 10 SE - 10 -
29.05.2020 14:00:00 20,8 6,9 15 8 SE 1021,1 10 -
29.05.2020 13:00:00 21,0 7,0 18 10 E - 10 -
29.05.2020 12:00:00 21,0 5,0 16 9 E - 10 -
29.05.2020 11:00:00 20,1 5,1 16 9 ENE 1022,1 10 0,0
29.05.2020 10:00:00 19,0 11,0 11 6 ENE - 10 -
29.05.2020 09:00:00 18,0 9,0 9 5 NE - 10 -
29.05.2020 08:00:00 17,5 11,3 11 6 NNE 1022,4 10 -
29.05.2020 07:00:00 15,0 11,0 11 6 NNE - 10 -
29.05.2020 06:00:00 13,0 11,0 11 6 NE - 10 -
29.05.2020 05:00:00 13,4 11,6 15 8 NNE 1022,0 10 0,0
29.05.2020 04:00:00 15,0 12,0 9 5 NNE - 10 -
29.05.2020 03:00:00 17,0 10,0 9 5 SE - 10 -
29.05.2020 02:00:00 16,4 11,2 24 13 ESE 1022,1 10 -
29.05.2020 01:00:00 17,0 12,0 18 10 ESE - 10 -
29.05.2020 00:00:00 16,0 13,0 16 9 ESE - 10 -
28.05.2020 23:00:00 16,2 12,3 18 10 E 1022,6 8 0,0
28.05.2020 22:00:00 20,0 13,0 8 4 S - 10 -
28.05.2020 21:00:00 21,0 13,0 13 7 SSE - 10 -
28.05.2020 20:00:00 21,2 13,4 11 6 SSE 1019,8 25 -
28.05.2020 19:00:00 22,0 13,0 11 6 S - 10 -
28.05.2020 18:00:00 23,0 11,0 11 6 S - 10 -
28.05.2020 17:00:00 23,3 10,1 13 7 S 1020,6 10 0,0
28.05.2020 16:00:00 23,0 11,0 13 7 SSE - 10 -
28.05.2020 15:00:00 23,0 10,0 11 6 S - 10 -
28.05.2020 14:00:00 22,4 10,6 9 5 S 1022,8 10 -
28.05.2020 13:00:00 21,0 12,0 9 5 SSE - 10 -
28.05.2020 12:00:00 21,0 11,0 8 4 SSE - 10 -
28.05.2020 11:00:00 20,7 10,6 9 5 SE 1024,8 10 0,0
28.05.2020 10:00:00 20,0 11,0 5 3 ENE - 10 -
28.05.2020 09:00:00 18,0 12,0 9 5 ENE - 10 -
28.05.2020 08:00:00 15,6 10,1 9 5 NE 1025,7 10 -
28.05.2020 07:00:00 14,0 9,0 8 4 NNE - 10 -
28.05.2020 06:00:00 16,0 11,0 2 1 - - 10 -
28.05.2020 05:00:00 14,9 9,0 4 2 NNE 1025,9 10 0,0
28.05.2020 04:00:00 17,0 8,0 5 3 E - 10 -
28.05.2020 03:00:00 15,0 9,0 4 2 - - 10 -
28.05.2020 02:00:00 16,8 7,2 8 4 NNW 1026,8 10 -
28.05.2020 01:00:00 17,0 8,0 11 6 WSW - 10 -
28.05.2020 00:00:00 18,0 8,0 13 7 WSW - 10 -
27.05.2020 23:00:00 20,3 9,3 11 6 WSW 1026,9 10 0,0
27.05.2020 22:00:00 21,0 6,0 13 7 SW - 10 -
27.05.2020 21:00:00 21,0 4,0 15 8 SW - 10 -
27.05.2020 20:00:00 22,0 5,6 15 8 SW 1026,4 10 -
27.05.2020 19:00:00 23,0 4,0 11 6 S - 10 -
27.05.2020 18:00:00 23,0 7,0 11 6 S - 10 -
27.05.2020 17:00:00 23,3 7,4 11 6 S 1027,5 10 0,0
27.05.2020 16:00:00 23,0 9,0 11 6 S - 10 -
27.05.2020 15:00:00 23,0 8,0 11 6 S - 10 -
27.05.2020 14:00:00 22,0 7,8 15 8 S 1028,8 10 -
27.05.2020 13:00:00 21,0 9,0 11 6 S - 10 -
27.05.2020 12:00:00 21,0 10,0 15 8 SSW - 10 -
27.05.2020 11:00:00 20,3 10,5 9 5 S 1030,2 10 0,0
27.05.2020 10:00:00 20,0 11,0 5 3 SSW - 10 -
27.05.2020 09:00:00 19,0 12,0 2 1 - - 10 -
27.05.2020 08:00:00 17,0 11,4 5 3 NNE 1030,1 10 -
27.05.2020 07:00:00 14,0 11,0 8 4 NE - 10 -
27.05.2020 06:00:00 13,0 11,0 8 4 NNW - 10 -
27.05.2020 05:00:00 12,4 11,1 8 4 NNW 1029,7 10 0,0
27.05.2020 04:00:00 14,0 11,0 8 4 NNW - 10 -
27.05.2020 03:00:00 14,0 12,0 4 2 - - 10 -
27.05.2020 02:00:00 17,1 11,5 8 4 ESE 1029,4 10 -
27.05.2020 01:00:00 17,0 11,0 4 2 NE - 10 -
27.05.2020 00:00:00 17,0 11,0 5 3 ESE - 10 -
26.05.2020 23:00:00 16,5 10,0 8 4 N 1028,5 10 0,0
26.05.2020 22:00:00 18,0 10,0 8 4 NNW - 10 -
26.05.2020 21:00:00 18,0 10,0 8 4 NW - 10 -
26.05.2020 20:00:00 19,9 6,5 5 3 WSW 1026,7 10 -
26.05.2020 19:00:00 20,0 9,0 9 5 S - 10 -
26.05.2020 18:00:00 20,0 11,0 13 7 SSE - 10 -
26.05.2020 17:00:00 19,2 11,3 8 4 ESE 1026,3 - 0,0
26.05.2020 16:00:00 - - - - - - - -
26.05.2020 15:00:00 21,0 11,0 11 6 S - 10 -
26.05.2020 14:00:00 21,1 10,6 11 6 SSE 1027,5 10 -
26.05.2020 13:00:00 21,0 10,0 13 7 SSE - 10 -
26.05.2020 12:00:00 21,0 10,0 15 8 SSE - 10 -
26.05.2020 11:00:00 20,5 10,5 13 7 S 1028,0 10 0,0
26.05.2020 10:00:00 19,0 10,0 8 4 SSE - 10 -
26.05.2020 09:00:00 19,0 13,0 8 4 WNW - 10 -
26.05.2020 08:00:00 19,0 12,2 4 2 - 1027,4 10 -
26.05.2020 07:00:00 18,0 12,0 5 3 - - 10 -
26.05.2020 06:00:00 17,0 12,0 8 4 S - 10 -
26.05.2020 05:00:00 17,6 11,9 9 5 SSE 1026,6 10 0,0
26.05.2020 04:00:00 18,0 13,0 15 8 SE - 10 -
26.05.2020 03:00:00 18,0 13,0 16 9 SE - 10 -
26.05.2020 02:00:00 19,0 11,9 16 9 SE 1025,8 10 -
26.05.2020 01:00:00 19,0 15,0 18 10 E - 10 -
26.05.2020 00:00:00 19,0 15,0 13 7 E - 10 -
25.05.2020 23:00:00 19,1 14,7 16 9 E 1023,9 10 0,0
25.05.2020 22:00:00 20,0 16,0 16 9 E - 10 -
25.05.2020 21:00:00 21,0 15,0 15 8 SE - 10 -
25.05.2020 20:00:00 21,9 14,2 9 5 SSE 1021,5 10 -
25.05.2020 19:00:00 22,0 15,0 16 9 SSE - 10 -
25.05.2020 18:00:00 23,0 14,0 16 9 SSE - 10 -
25.05.2020 17:00:00 22,8 14,4 16 9 SSE 1022,4 10 0,0
25.05.2020 16:00:00 22,0 13,0 16 9 SSE - 10 -
25.05.2020 15:00:00 23,0 13,0 16 9 SSE - 10 -
25.05.2020 14:00:00 22,3 13,7 15 8 SSE 1024,6 10 -
25.05.2020 13:00:00 22,0 14,0 13 7 SSE - 10 -
25.05.2020 12:00:00 22,0 10,0 16 9 SSW - 10 -
25.05.2020 11:00:00 21,2 9,5 9 5 S 1026,4 10 0,0
25.05.2020 10:00:00 19,0 13,0 8 4 SE - 10 -
25.05.2020 09:00:00 18,0 12,0 2 1 - - 10 -
25.05.2020 08:00:00 16,0 10,8 9 5 NNE 1027,2 10 -
25.05.2020 07:00:00 15,0 11,0 5 3 NNE - 10 -
25.05.2020 06:00:00 14,0 11,0 11 6 N - 10 -
25.05.2020 05:00:00 14,9 11,7 8 4 WNW 1026,6 10 0,0
25.05.2020 04:00:00 16,0 12,0 9 5 W - 10 -
25.05.2020 03:00:00 17,0 12,0 8 4 WSW - 10 -
25.05.2020 02:00:00 16,6 11,9 5 3 W 1026,9 10 -
25.05.2020 01:00:00 17,0 11,0 8 4 W - 10 -
25.05.2020 00:00:00 18,0 13,0 4 2 WNW - 10 -

tt = temperature
td = dewpoint
ff = wind speed
dd = wind direction
ppp = reduced air pressure
vv = visibility
rr = precipitation

Next stations